| time (UTC) | temp C | wind direction | speed KPH | gust KPH | rain 1hr cm | rain 24hr cm | rain mn cm | humidity % | barometer mb |
| 20260905040033 | 17 | 293 | 0.0 | 0.0 | 0.00 | 0.00 | 0.00 | 86 | 1009.2 |
| 20260905034531 | 17 | 293 | 0.0 | 0.0 | 0.00 | 0.00 | 0.00 | 86 | 1009.3 |
| 20260905033031 | 17 | 293 | 0.0 | 0.0 | 0.00 | 0.00 | 0.00 | 86 | 1009.2 |
| 20260905031529 | 17 | 293 | 0.0 | 0.0 | 0.00 | 0.00 | 0.00 | 86 | 1009.1 |
| 20260905030022 | 17 | 293 | 0.0 | 0.0 | 0.00 | 0.00 | 0.00 | 85 | 1009.2 |
| 20260905024520 | 17 | 293 | 0.0 | 0.0 | 0.00 | 0.00 | 0.00 | 85 | 1009.1 |
| 20260905023020 | 17 | 293 | 0.0 | 0.0 | 0.00 | 0.00 | 0.00 | 85 | 1009.1 |
| 20260905021517 | 18 | 293 | 0.0 | 0.0 | 0.00 | 0.00 | 0.00 | 85 | 1009.1 |
| 20260905020018 | 18 | 293 | 0.0 | 0.0 | 0.00 | 0.00 | 0.00 | 84 | 1009.3 |
| 20260905014511 | 18 | 293 | 0.0 | 0.0 | 0.00 | 0.00 | 0.00 | 84 | 1009.5 |
| 20260905013006 | 18 | 293 | 0.0 | 0.0 | 0.00 | 0.00 | 0.00 | 84 | 1009.7 |
| 20260905011505 | 19 | 293 | 0.0 | 0.0 | 0.00 | 0.00 | 0.00 | 83 | 1009.7 |
| 20260905010059 | 19 | 293 | 0.0 | 0.0 | 0.00 | 0.00 | 0.00 | 83 | 1009.6 |
| 20260905004623 | 19 | 293 | 0.0 | 0.0 | 0.00 | 0.00 | 0.00 | 82 | 1009.6 |
| 20260905003056 | 20 | 293 | 0.0 | 0.0 | 0.00 | 0.00 | 0.00 | 81 | 1009.4 |
| 20260905001551 | 20 | 293 | 0.0 | 0.0 | 0.00 | 0.00 | 0.00 | 79 | 1009.3 |
| 20260905000045 | 21 | 293 | 0.0 | 0.0 | 0.00 | 0.00 | 0.00 | 76 | 1009.1 |
| 20260904234541 | 21 | 293 | 0.0 | 0.0 | 0.00 | 0.00 | 0.00 | 74 | 1009.0 |
| 20260904233037 | 23 | 293 | 0.0 | 0.0 | 0.00 | 0.00 | 0.00 | 69 | 1009.0 |
| 20260904231536 | 23 | 293 | 0.0 | 0.0 | 0.00 | 0.00 | 0.00 | 65 | 1008.9 |
| 20260904230043 | 24 | 293 | 0.0 | 0.0 | 0.00 | 0.00 | 0.00 | 64 | 1008.8 |
| 20260904224528 | 25 | 277 | 0.0 | 4.8 | 0.00 | 0.00 | 0.00 | 62 | 1008.7 |
| 20260904223023 | 25 | 296 | 0.0 | 4.8 | 0.00 | 0.00 | 0.00 | 61 | 1008.7 |
| 20260904221524 | 25 | 302 | 6.4 | 16.1 | 0.00 | 0.00 | 0.00 | 59 | 1008.5 |
| 20260904220018 | 25 | 305 | 3.2 | 17.7 | 0.00 | 0.00 | 0.00 | 62 | 1008.5 |
| 20260904214521 | 25 | 303 | 6.4 | 20.9 | 0.00 | 0.00 | 0.00 | 60 | 1008.5 |
| 20260904213017 | 25 | 314 | 11.3 | 19.3 | 0.00 | 0.00 | 0.00 | 60 | 1008.5 |
| 20260904211515 | 25 | 299 | 12.9 | 22.5 | 0.00 | 0.00 | 0.00 | 56 | 1008.6 |
| 20260904210015 | 25 | 284 | 4.8 | 17.7 | 0.00 | 0.00 | 0.00 | 60 | 1008.6 |
| 20260904204513 | 25 | 282 | 9.7 | 22.5 | 0.00 | 0.00 | 0.00 | 58 | 1008.4 |
| 20260904203007 | 25 | 249 | 8.0 | 27.4 | 0.00 | 0.00 | 0.00 | 58 | 1008.5 |
| 20260904203004 | 25 | 249 | 9.7 | 27.4 | 0.00 | 0.00 | 0.00 | 58 | 1008.5 |
| 20260904201504 | 25 | 315 | 12.9 | 20.9 | 0.00 | 0.00 | 0.00 | 59 | 1008.7 |
| 20260904200003 | 25 | 265 | 3.2 | 19.3 | 0.00 | 0.00 | 0.00 | 59 | 1008.7 |
| 20260904194608 | 25 | 272 | 0.0 | 16.1 | 0.00 | 0.00 | 0.00 | 62 | 1008.7 |
| 20260904193100 | 25 | 296 | 11.3 | 17.7 | 0.00 | 0.00 | 0.00 | 62 | 1008.6 |
| 20260904191558 | 25 | 295 | 8.0 | 22.5 | 0.00 | 0.00 | 0.00 | 62 | 1008.6 |
| 20260904190058 | 25 | 295 | 9.7 | 19.3 | 0.00 | 0.00 | 0.00 | 62 | 1008.7 |
| 20260904184631 | 25 | 321 | 9.7 | 20.9 | 0.00 | 0.00 | 0.00 | 59 | 1008.8 |
| 20260904183027 | 25 | 328 | 11.3 | 22.5 | 0.00 | 0.00 | 0.00 | 58 | 1008.9 |
| 20260904181523 | 25 | 297 | 6.4 | 22.5 | 0.00 | 0.00 | 0.00 | 60 | 1008.8 |
| 20260904180022 | 25 | 317 | 12.9 | 24.1 | 0.00 | 0.00 | 0.00 | 59 | 1008.7 |
| 20260904174519 | 25 | 328 | 3.2 | 19.3 | 0.00 | 0.00 | 0.00 | 63 | 1008.8 |
| 20260904173021 | 25 | 296 | 8.0 | 20.9 | 0.00 | 0.00 | 0.00 | 65 | 1009.0 |
| 20260904171551 | 24 | 290 | 11.3 | 22.5 | 0.00 | 0.00 | 0.00 | 66 | 1008.9 |
| 20260904170052 | 24 | 317 | 8.0 | 17.7 | 0.00 | 0.00 | 0.00 | 68 | 1009.1 |
| 20260904164516 | 24 | 330 | 0.0 | 20.9 | 0.00 | 0.00 | 0.00 | 67 | 1009.1 |
| 20260904163016 | 23 | 301 | 11.3 | 19.3 | 0.00 | 0.00 | 0.00 | 69 | 1009.3 |
| 20260904161544 | 23 | 314 | 4.8 | 19.3 | 0.00 | 0.00 | 0.00 | 72 | 1009.3 |
| 20260904160041 | 23 | 299 | 3.2 | 20.9 | 0.00 | 0.00 | 0.00 | 72 | 1009.5 |
| 20260904154539 | 23 | 293 | 0.0 | 19.3 | 0.00 | 0.00 | 0.00 | 74 | 1009.7 |
| 20260904153049 | 23 | 290 | 11.3 | 19.3 | 0.00 | 0.00 | 0.00 | 74 | 1009.7 |
| 20260904151536 | 23 | 313 | 12.9 | 19.3 | 0.00 | 0.00 | 0.00 | 76 | 1009.9 |
| 20260904150044 | 23 | 299 | 9.7 | 16.1 | 0.00 | 0.00 | 0.00 | 74 | 1009.8 |
| 20260904144533 | 23 | 307 | 0.0 | 16.1 | 0.00 | 0.00 | 0.00 | 76 | 1009.8 |
| 20260904143036 | 23 | 339 | 6.4 | 16.1 | 0.00 | 0.00 | 0.00 | 75 | 1009.8 |
| 20260904141532 | 23 | 312 | 9.7 | 17.7 | 0.00 | 0.00 | 0.00 | 76 | 1010.0 |
| 20260904140030 | 23 | 299 | 8.0 | 19.3 | 0.00 | 0.00 | 0.00 | 77 | 1010.0 |
| 20260904134530 | 22 | 301 | 12.9 | 20.9 | 0.00 | 0.00 | 0.00 | 78 | 1010.0 |
| 20260904133026 | 22 | 315 | 9.7 | 19.3 | 0.00 | 0.00 | 0.00 | 85 | 1010.1 |
| 20260904131525 | 20 | 284 | 0.0 | 6.4 | 0.00 | 0.00 | 0.00 | 87 | 1010.1 |
| 20260904130039 | 20 | 245 | 0.0 | 0.0 | 0.00 | 0.00 | 0.00 | 87 | 1010.1 |
| 20260904124525 | 20 | 245 | 0.0 | 0.0 | 0.00 | 0.00 | 0.00 | 88 | 1010.2 |
| 20260904123025 | 20 | 245 | 0.0 | 0.0 | 0.00 | 0.00 | 0.00 | 88 | 1010.1 |
| 20260904121521 | 18 | 245 | 0.0 | 0.0 | 0.00 | 0.00 | 0.00 | 88 | 1010.2 |
| 20260904120033 | 18 | 245 | 0.0 | 0.0 | 0.00 | 0.00 | 0.00 | 87 | 1010.1 |
| 20260904114549 | 18 | 245 | 0.0 | 0.0 | 0.00 | 0.00 | 0.00 | 88 | 1010.0 |
| 20260904113050 | 18 | 245 | 0.0 | 0.0 | 0.00 | 0.00 | 0.00 | 88 | 1009.9 |
| 20260904111546 | 17 | 245 | 0.0 | 0.0 | 0.00 | 0.00 | 0.00 | 88 | 1009.8 |
| 20260904110048 | 17 | 245 | 0.0 | 0.0 | 0.00 | 0.00 | 0.00 | 88 | 1009.9 |
| 20260904104545 | 17 | 245 | 0.0 | 0.0 | 0.00 | 0.00 | 0.00 | 88 | 1009.9 |
| 20260904103043 | 18 | 245 | 0.0 | 0.0 | 0.00 | 0.00 | 0.00 | 88 | 1009.8 |
| 20260904101513 | 18 | 245 | 0.0 | 0.0 | 0.00 | 0.03 | 0.00 | 88 | 1009.6 |
| 20260904100011 | 18 | 245 | 0.0 | 0.0 | 0.00 | 0.03 | 0.00 | 88 | 1009.4 |
| 20260904094509 | 18 | 245 | 0.0 | 0.0 | 0.00 | 0.03 | 0.00 | 88 | 1009.4 |
| 20260904093008 | 18 | 245 | 0.0 | 0.0 | 0.00 | 0.03 | 0.00 | 88 | 1009.7 |
| 20260904091535 | 18 | 245 | 0.0 | 0.0 | 0.00 | 0.05 | 0.00 | 88 | 1009.7 |
| 20260904090035 | 18 | 245 | 0.0 | 0.0 | 0.00 | 0.05 | 0.00 | 88 | 1009.4 |
| 20260904084532 | 18 | 245 | 0.0 | 0.0 | 0.00 | 0.05 | 0.00 | 88 | 1009.5 |
| 20260904083036 | 18 | 245 | 0.0 | 0.0 | 0.00 | 0.05 | 0.00 | 88 | 1009.3 |
| 20260904081505 | 18 | 245 | 0.0 | 0.0 | 0.00 | 0.86 | 0.00 | 88 | 1009.4 |
| 20260904080105 | 18 | 245 | 0.0 | 0.0 | 0.00 | 0.86 | 0.00 | 88 | 1009.5 |
| 20260904074558 | 18 | 245 | 0.0 | 0.0 | 0.00 | 0.86 | 0.00 | 88 | 1009.7 |
| 20260904073057 | 18 | 245 | 0.0 | 0.0 | 0.00 | 0.86 | 0.00 | 88 | 1009.8 |
| 20260904071554 | 19 | 245 | 0.0 | 0.0 | 0.00 | 1.30 | 0.00 | 88 | 1009.9 |
| 20260904070052 | 19 | 245 | 0.0 | 0.0 | 0.00 | 1.30 | 0.00 | 88 | 1010.2 |
| 20260904064554 | 19 | 245 | 0.0 | 0.0 | 0.00 | 1.30 | 0.00 | 88 | 1010.1 |
| 20260904063046 | 19 | 245 | 0.0 | 0.0 | 0.00 | 1.30 | 0.00 | 88 | 1010.3 |
| 20260904061551 | 19 | 245 | 0.0 | 0.0 | 0.00 | 1.30 | 0.00 | 88 | 1010.4 |
| 20260904060043 | 19 | 245 | 0.0 | 0.0 | 0.00 | 1.30 | 0.00 | 88 | 1010.5 |
| 20260904054543 | 19 | 245 | 0.0 | 0.0 | 0.00 | 1.30 | 0.00 | 88 | 1010.5 |
| 20260904053039 | 19 | 245 | 0.0 | 0.0 | 0.00 | 1.30 | 0.00 | 88 | 1010.7 |
| 20260904050035 | 20 | 245 | 0.0 | 0.0 | 0.00 | 1.30 | 0.00 | 88 | 1010.9 |
| 20260904044548 | 20 | 245 | 0.0 | 0.0 | 0.00 | 1.30 | 0.00 | 88 | 1011.0 |
| 20260904043036 | 20 | 245 | 0.0 | 0.0 | 0.00 | 1.30 | 0.00 | 88 | 1011.1 |
| 20260904041529 | 20 | 245 | 0.0 | 0.0 | 0.00 | 1.30 | 0.00 | 88 | 1011.3 |